Home   Weather   Napa   Past weeks

Flag for USA Past Weather in Napa, California, USA — Yesterday and Last 2 Weeks

Now
36 °F

Fog.


Feels Like: 36 °F
Forecast: 36 / 54 °F
Wind: No wind

Location: Napa County Airport

Current Time: Dec 6, 2016 at 4:22:38 am

Latest Report: Dec 6, 2016 at 3:54 am


Visibility: 10 mi

Pressure: 30.03 "Hg

Humidity: 92%

Dew Point: 34 °F

Location of NapaLocation

Past Weather in Napa — Graph

°F

Napa Temperature Yesterday

Maximum temperature yesterday: 56 °F (at 2:54 pm)
Minimum temperature yesterday: 36 °F (at 4:54 am)
Average temperature yesterday: 46 °F

High & Low Weather Summary for the Past Weeks

 TemperatureHumidityPressure
High65 °F (Dec 2, 1:54 pm)100% (Nov 22, 1:54 am)30.36 "Hg (Nov 22, 1:54 am)
Low34 °F (Dec 1, 6:54 am)27% (Dec 2, 1:54 pm)29.76 "Hg (Nov 26, 4:54 am)
Average50 °F74%30.09 "Hg
* Reported Nov 21 2:54 am — Dec 6 2:54 am, Napa, Weather by CustomWeather, © 2016

Note: Actual official high and low records may vary slightly from our data, if they occured in-between our weather recording intervals... More about our weather records

Advertising

Napa Weather History for the Previous 24 Hours

Scroll right to see more
 ConditionsComfort  
Time TempWeatherWind HumidityBarometerVisibility
2:54 am
Tue, Dec 6
37 °FFog.5 mph89%30.03 "Hg10 mi
1:54 am40 °FFog.5 mph89%30.02 "Hg10 mi
12:54 am43 °FFog.No wind86%30.03 "Hg10 mi
11:54 pm
Mon, Dec 5
43 °FFog.No wind86%30.03 "Hg10 mi
10:54 pm45 °FFog.No wind82%30.03 "Hg10 mi
9:54 pm44 °FFog.No wind82%30.02 "Hg10 mi
8:54 pm44 °FFog.5 mph82%30.01 "Hg10 mi
7:54 pm46 °FFog.3 mph83%30.01 "Hg10 mi
6:54 pm47 °FFog.No wind83%30.00 "Hg10 mi
5:54 pm50 °FFog.7 mph80%30.00 "Hg10 mi
4:54 pm51 °FFog.6 mph83%30.01 "Hg9 mi
3:54 pm54 °FFog.5 mph74%30.02 "Hg10 mi
2:54 pm56 °FFog.3 mph72%30.04 "Hg9 mi
2:01 pm54 °FFog.3 mph80%30.07 "Hg9 mi
1:54 pm54 °FFog.3 mph80%30.05 "Hg10 mi
12:54 pm55 °FFog.3 mph77%30.06 "Hg6 mi
11:54 am54 °FFog.6 mph74%30.07 "Hg6 mi
10:54 am53 °FFog.7 mph83%30.09 "Hg5 mi
9:54 am50 °FFog.3 mph89%30.09 "Hg5 mi
8:57 am47 °FFog.No wind93%30.13 "Hg1 mi
7:54 am45 °FFog.No wind90%30.09 "Hg0 mi
6:54 am41 °FFog.3 mph93%30.07 "Hg1 mi
6:03 am39 °FFog.No wind89%30.10 "Hg1 mi
5:54 am37 °FFog.No wind93%30.06 "Hg1 mi
4:54 am36 °FFog.No wind97%30.06 "Hg1 mi
Weather by CustomWeather, © 2016

See weather overviewHow to use our weather pages